owner,sensor,date,latitude,longitude,vertical_datum,sea_water_practical_salinity,qcFlag 
NERRS,ioos:station:NOAA.NERRS:rkblhwq:1,2017-05-01T00:45:00Z,26.0257,-81.7332,1.2,36.3,1111122 
NERRS,ioos:station:NOAA.NERRS:rkblhwq:1,2017-05-01T01:45:00Z,26.0257,-81.7332,1.04,36.3,1111122 
NERRS,ioos:station:NOAA.NERRS:rkblhwq:1,2017-05-01T02:45:00Z,26.0257,-81.7332,0.89,36.3,1111122 
NERRS,ioos:station:NOAA.NERRS:rkblhwq:1,2017-05-01T03:45:00Z,26.0257,-81.7332,0.75,36.4,1111122 
NERRS,ioos:station:NOAA.NERRS:rkblhwq:1,2017-05-01T04:45:00Z,26.0257,-81.7332,0.64,36.5,1111122 
NERRS,ioos:station:NOAA.NERRS:rkblhwq:1,2017-05-01T05:45:00Z,26.0257,-81.7332,0.67,36.5,1111122 
NERRS,ioos:station:NOAA.NERRS:rkblhwq:1,2017-05-01T06:45:00Z,26.0257,-81.7332,0.77,36.5,1111122 
NERRS,ioos:station:NOAA.NERRS:rkblhwq:1,2017-05-01T07:45:00Z,26.0257,-81.7332,0.91,36.3,1111122 
NERRS,ioos:station:NOAA.NERRS:rkblhwq:1,2017-05-01T08:45:00Z,26.0257,-81.7332,1.09,36.2,1111122 
NERRS,ioos:station:NOAA.NERRS:rkblhwq:1,2017-05-01T09:45:00Z,26.0257,-81.7332,1.25,36.2,1111122 
NERRS,ioos:station:NOAA.NERRS:rkblhwq:1,2017-05-01T10:45:00Z,26.0257,-81.7332,1.35,36.2,1111122 
NERRS,ioos:station:NOAA.NERRS:rkblhwq:1,2017-05-01T11:45:00Z,26.0257,-81.7332,1.38,36.2,1111122 
NERRS,ioos:station:NOAA.NERRS:rkblhwq:1,2017-05-01T12:45:00Z,26.0257,-81.7332,1.32,36.1,1111122 
NERRS,ioos:station:NOAA.NERRS:rkblhwq:1,2017-05-01T13:45:00Z,26.0257,-81.7332,1.24,36.2,1111122 
NERRS,ioos:station:NOAA.NERRS:rkblhwq:1,2017-05-01T14:45:00Z,26.0257,-81.7332,1.17,36.4,1111122 
NERRS,ioos:station:NOAA.NERRS:rkblhwq:1,2017-05-01T15:45:00Z,26.0257,-81.7332,1.11,36.3,1111122 
NERRS,ioos:station:NOAA.NERRS:rkblhwq:1,2017-05-01T16:45:00Z,26.0257,-81.7332,1.11,36.3,1111122 
NERRS,ioos:station:NOAA.NERRS:rkblhwq:1,2017-05-01T17:45:00Z,26.0257,-81.7332,1.18,36.2,1111122 
NERRS,ioos:station:NOAA.NERRS:rkblhwq:1,2017-05-01T18:45:00Z,26.0257,-81.7332,1.27,35.9,1111122 
NERRS,ioos:station:NOAA.NERRS:rkblhwq:1,2017-05-01T19:45:00Z,26.0257,-81.7332,1.37,36.1,1111122 
NERRS,ioos:station:NOAA.NERRS:rkblhwq:1,2017-05-01T20:45:00Z,26.0257,-81.7332,1.45,35.7,1111122 
NERRS,ioos:station:NOAA.NERRS:rkblhwq:1,2017-05-01T21:45:00Z,26.0257,-81.7332,1.47,35.9,1111122 
NERRS,ioos:station:NOAA.NERRS:rkblhwq:1,2017-05-01T22:45:00Z,26.0257,-81.7332,1.43,36.1,1111122 
NERRS,ioos:station:NOAA.NERRS:rkblhwq:1,2017-05-01T23:45:00Z,26.0257,-81.7332,1.34,36.1,1111122 
NERRS,ioos:station:NOAA.NERRS:rkblhwq:1,2017-05-02T00:45:00Z,26.0257,-81.7332,1.22,36.3,1111122 
NERRS,ioos:station:NOAA.NERRS:rkblhwq:1,2017-05-02T01:45:00Z,26.0257,-81.7332,1.08,36.3,1111122 
NERRS,ioos:station:NOAA.NERRS:rkblhwq:1,2017-05-02T02:45:00Z,26.0257,-81.7332,0.93,36.4,1111122 
NERRS,ioos:station:NOAA.NERRS:rkblhwq:1,2017-05-02T03:45:00Z,26.0257,-81.7332,0.8,36.4,1111122 
NERRS,ioos:station:NOAA.NERRS:rkblhwq:1,2017-05-02T04:45:00Z,26.0257,-81.7332,0.72,36.4,1111122 
NERRS,ioos:station:NOAA.NERRS:rkblhwq:1,2017-05-02T05:45:00Z,26.0257,-81.7332,0.68,36.5,1111122 
NERRS,ioos:station:NOAA.NERRS:rkblhwq:1,2017-05-02T06:45:00Z,26.0257,-81.7332,0.74,36.6,1111122 
NERRS,ioos:station:NOAA.NERRS:rkblhwq:1,2017-05-02T07:45:00Z,26.0257,-81.7332,0.84,36.4,1111122 
NERRS,ioos:station:NOAA.NERRS:rkblhwq:1,2017-05-02T08:45:00Z,26.0257,-81.7332,0.97,36.3,1111122 
NERRS,ioos:station:NOAA.NERRS:rkblhwq:1,2017-05-02T09:45:00Z,26.0257,-81.7332,1.13,36.1,1111122 
NERRS,ioos:station:NOAA.NERRS:rkblhwq:1,2017-05-02T10:45:00Z,26.0257,-81.7332,1.28,36.1,1111122 
NERRS,ioos:station:NOAA.NERRS:rkblhwq:1,2017-05-02T11:45:00Z,26.0257,-81.7332,1.39,35.8,1111122 
NERRS,ioos:station:NOAA.NERRS:rkblhwq:1,2017-05-02T12:45:00Z,26.0257,-81.7332,4.47,36.5,1111122 
NERRS,ioos:station:NOAA.NERRS:rkblhwq:1,2017-05-02T13:45:00Z,26.0257,-81.7332,4.22,36.4,1111122 
NERRS,ioos:station:NOAA.NERRS:rkblhwq:1,2017-05-02T14:45:00Z,26.0257,-81.7332,4.02,36.5,1111122 
NERRS,ioos:station:NOAA.NERRS:rkblhwq:1,2017-05-02T15:45:00Z,26.0257,-81.7332,3.79,36.5,1111122 
NERRS,ioos:station:NOAA.NERRS:rkblhwq:1,2017-05-02T16:45:00Z,26.0257,-81.7332,3.59,36.5,1111122 
NERRS,ioos:station:NOAA.NERRS:rkblhwq:1,2017-05-02T17:45:00Z,26.0257,-81.7332,3.56,36.5,1111122 
NERRS,ioos:station:NOAA.NERRS:rkblhwq:1,2017-05-02T18:45:00Z,26.0257,-81.7332,3.68,36.4,1111122 
NERRS,ioos:station:NOAA.NERRS:rkblhwq:1,2017-05-02T19:45:00Z,26.0257,-81.7332,3.91,36.4,1111122 
NERRS,ioos:station:NOAA.NERRS:rkblhwq:1,2017-05-02T20:45:00Z,26.0257,-81.7332,4.16,36.4,1111122 
NERRS,ioos:station:NOAA.NERRS:rkblhwq:1,2017-05-02T21:45:00Z,26.0257,-81.7332,4.38,36.3,1111122 
NERRS,ioos:station:NOAA.NERRS:rkblhwq:1,2017-05-02T22:45:00Z,26.0257,-81.7332,4.54,36.3,1111122 
NERRS,ioos:station:NOAA.NERRS:rkblhwq:1,2017-05-02T23:45:00Z,26.0257,-81.7332,4.55,36.5,1111122 
NERRS,ioos:station:NOAA.NERRS:rkblhwq:1,2017-05-03T00:45:00Z,26.0257,-81.7332,4.37,36.4,1111122 
NERRS,ioos:station:NOAA.NERRS:rkblhwq:1,2017-05-03T01:45:00Z,26.0257,-81.7332,4.06,36.5,1111122 
NERRS,ioos:station:NOAA.NERRS:rkblhwq:1,2017-05-03T02:45:00Z,26.0257,-81.7332,3.68,36.5,1111122 
NERRS,ioos:station:NOAA.NERRS:rkblhwq:1,2017-05-03T03:45:00Z,26.0257,-81.7332,3.25,36.6,1111122 
NERRS,ioos:station:NOAA.NERRS:rkblhwq:1,2017-05-03T04:45:00Z,26.0257,-81.7332,2.82,36.6,1111122 
NERRS,ioos:station:NOAA.NERRS:rkblhwq:1,2017-05-03T05:45:00Z,26.0257,-81.7332,2.42,36.6,1111122 
NERRS,ioos:station:NOAA.NERRS:rkblhwq:1,2017-05-03T06:45:00Z,26.0257,-81.7332,2.13,36.6,1111122 
NERRS,ioos:station:NOAA.NERRS:rkblhwq:1,2017-05-03T07:45:00Z,26.0257,-81.7332,2.2,36.7,1111122 
NERRS,ioos:station:NOAA.NERRS:rkblhwq:1,2017-05-03T08:45:00Z,26.0257,-81.7332,2.55,36.7,1111122 
NERRS,ioos:station:NOAA.NERRS:rkblhwq:1,2017-05-03T09:45:00Z,26.0257,-81.7332,2.95,36.6,1111122 
NERRS,ioos:station:NOAA.NERRS:rkblhwq:1,2017-05-03T10:45:00Z,26.0257,-81.7332,3.37,36.4,1111122 
NERRS,ioos:station:NOAA.NERRS:rkblhwq:1,2017-05-03T11:45:00Z,26.0257,-81.7332,3.83,36.5,1111122 
NERRS,ioos:station:NOAA.NERRS:rkblhwq:1,2017-05-03T12:45:00Z,26.0257,-81.7332,4.19,36.5,1111122 
NERRS,ioos:station:NOAA.NERRS:rkblhwq:1,2017-05-03T13:45:00Z,26.0257,-81.7332,4.37,36.4,1111122 
NERRS,ioos:station:NOAA.NERRS:rkblhwq:1,2017-05-03T14:45:00Z,26.0257,-81.7332,4.21,36.4,1111122 
NERRS,ioos:station:NOAA.NERRS:rkblhwq:1,2017-05-03T15:45:00Z,26.0257,-81.7332,3.91,36.4,1111122 
NERRS,ioos:station:NOAA.NERRS:rkblhwq:1,2017-05-03T16:45:00Z,26.0257,-81.7332,3.63,36.4,1111122 
NERRS,ioos:station:NOAA.NERRS:rkblhwq:1,2017-05-03T17:45:00Z,26.0257,-81.7332,3.34,36.4,1111122 
NERRS,ioos:station:NOAA.NERRS:rkblhwq:1,2017-05-03T18:45:00Z,26.0257,-81.7332,3.13,36.5,1111122 
NERRS,ioos:station:NOAA.NERRS:rkblhwq:1,2017-05-03T19:45:00Z,26.0257,-81.7332,3.12,36.5,1111122 
NERRS,ioos:station:NOAA.NERRS:rkblhwq:1,2017-05-03T20:45:00Z,26.0257,-81.7332,3.38,36.5,1111122 
NERRS,ioos:station:NOAA.NERRS:rkblhwq:1,2017-05-03T21:45:00Z,26.0257,-81.7332,3.69,36.5,1111122 
NERRS,ioos:station:NOAA.NERRS:rkblhwq:1,2017-05-04T00:45:00Z,26.0257,-81.7332,4.46,36.4,1111122 
NERRS,ioos:station:NOAA.NERRS:rkblhwq:1,2017-05-04T01:45:00Z,26.0257,-81.7332,4.43,36.5,1111122 
NERRS,ioos:station:NOAA.NERRS:rkblhwq:1,2017-05-04T02:45:00Z,26.0257,-81.7332,4.22,36.4,1111122 
NERRS,ioos:station:NOAA.NERRS:rkblhwq:1,2017-05-04T03:45:00Z,26.0257,-81.7332,3.92,36.4,1111122 
NERRS,ioos:station:NOAA.NERRS:rkblhwq:1,2017-05-04T04:45:00Z,26.0257,-81.7332,3.48,36.5,1111122 
NERRS,ioos:station:NOAA.NERRS:rkblhwq:1,2017-05-04T05:45:00Z,26.0257,-81.7332,3.02,36.6,1111122 
NERRS,ioos:station:NOAA.NERRS:rkblhwq:1,2017-05-04T06:45:00Z,26.0257,-81.7332,2.62,36.6,1111122 
NERRS,ioos:station:NOAA.NERRS:rkblhwq:1,2017-05-04T07:45:00Z,26.0257,-81.7332,2.33,36.7,1111122 
NERRS,ioos:station:NOAA.NERRS:rkblhwq:1,2017-05-04T08:45:00Z,26.0257,-81.7332,2.42,36.7,1111122 
NERRS,ioos:station:NOAA.NERRS:rkblhwq:1,2017-05-04T09:45:00Z,26.0257,-81.7332,2.71,36.6,1111122 
NERRS,ioos:station:NOAA.NERRS:rkblhwq:1,2017-05-04T10:45:00Z,26.0257,-81.7332,3.09,36.6,1111122 
NERRS,ioos:station:NOAA.NERRS:rkblhwq:1,2017-05-04T11:45:00Z,26.0257,-81.7332,3.59,36.4,1111122 
NERRS,ioos:station:NOAA.NERRS:rkblhwq:1,2017-05-04T12:45:00Z,26.0257,-81.7332,4.09,36.5,1111122 
NERRS,ioos:station:NOAA.NERRS:rkblhwq:1,2017-05-04T13:45:00Z,26.0257,-81.7332,4.44,36.4,1111122 
NERRS,ioos:station:NOAA.NERRS:rkblhwq:1,2017-05-04T14:45:00Z,26.0257,-81.7332,4.67,36.4,1111122 
NERRS,ioos:station:NOAA.NERRS:rkblhwq:1,2017-05-04T15:45:00Z,26.0257,-81.7332,4.72,36.5,1111122 
NERRS,ioos:station:NOAA.NERRS:rkblhwq:1,2017-05-04T16:45:00Z,26.0257,-81.7332,4.41,36.4,1111122 
NERRS,ioos:station:NOAA.NERRS:rkblhwq:1,2017-05-04T17:45:00Z,26.0257,-81.7332,4.0,36.5,1111122 
NERRS,ioos:station:NOAA.NERRS:rkblhwq:1,2017-05-04T18:45:00Z,26.0257,-81.7332,3.61,36.6,1111122 
NERRS,ioos:station:NOAA.NERRS:rkblhwq:1,2017-05-04T19:45:00Z,26.0257,-81.7332,3.28,36.6,1111122 
NERRS,ioos:station:NOAA.NERRS:rkblhwq:1,2017-05-04T20:45:00Z,26.0257,-81.7332,3.12,36.7,1111122 
NERRS,ioos:station:NOAA.NERRS:rkblhwq:1,2017-05-04T21:45:00Z,26.0257,-81.7332,3.27,36.5,1111122 
NERRS,ioos:station:NOAA.NERRS:rkblhwq:1,2017-05-04T22:45:00Z,26.0257,-81.7332,3.58,36.5,1111122 
NERRS,ioos:station:NOAA.NERRS:rkblhwq:1,2017-05-04T23:45:00Z,26.0257,-81.7332,3.91,36.5,1111122 
NERRS,ioos:station:NOAA.NERRS:rkblhwq:1,2017-05-05T00:45:00Z,26.0257,-81.7332,4.16,36.5,1111122 
NERRS,ioos:station:NOAA.NERRS:rkblhwq:1,2017-05-05T01:45:00Z,26.0257,-81.7332,4.28,36.5,1111122 
NERRS,ioos:station:NOAA.NERRS:rkblhwq:1,2017-05-05T02:45:00Z,26.0257,-81.7332,4.17,36.5,1111122 
NERRS,ioos:station:NOAA.NERRS:rkblhwq:1,2017-05-05T03:45:00Z,26.0257,-81.7332,3.9,36.5,1111122 
NERRS,ioos:station:NOAA.NERRS:rkblhwq:1,2017-05-05T04:45:00Z,26.0257,-81.7332,3.58,36.6,1111122 
NERRS,ioos:station:NOAA.NERRS:rkblhwq:1,2017-05-05T05:45:00Z,26.0257,-81.7332,3.26,36.7,1111122 
NERRS,ioos:station:NOAA.NERRS:rkblhwq:1,2017-05-05T06:45:00Z,26.0257,-81.7332,3.04,36.7,1111122 
NERRS,ioos:station:NOAA.NERRS:rkblhwq:1,2017-05-05T07:45:00Z,26.0257,-81.7332,2.83,36.7,1111122 
NERRS,ioos:station:NOAA.NERRS:rkblhwq:1,2017-05-05T08:45:00Z,26.0257,-81.7332,2.75,36.7,1111122 
NERRS,ioos:station:NOAA.NERRS:rkblhwq:1,2017-05-05T09:45:00Z,26.0257,-81.7332,2.93,36.6,1111122 
NERRS,ioos:station:NOAA.NERRS:rkblhwq:1,2017-05-05T10:45:00Z,26.0257,-81.7332,3.32,36.5,1111122 
NERRS,ioos:station:NOAA.NERRS:rkblhwq:1,2017-05-05T11:45:00Z,26.0257,-81.7332,3.81,36.2,1111122 
NERRS,ioos:station:NOAA.NERRS:rkblhwq:1,2017-05-05T12:45:00Z,26.0257,-81.7332,4.22,36.2,1111122 
NERRS,ioos:station:NOAA.NERRS:rkblhwq:1,2017-05-05T13:45:00Z,26.0257,-81.7332,4.56,36.2,1111122 
NERRS,ioos:station:NOAA.NERRS:rkblhwq:1,2017-05-05T15:45:00Z,26.0257,-81.7332,4.79,36.3,1111122 
NERRS,ioos:station:NOAA.NERRS:rkblhwq:1,2017-05-05T16:45:00Z,26.0257,-81.7332,4.48,36.0,1111122 
NERRS,ioos:station:NOAA.NERRS:rkblhwq:1,2017-05-05T17:45:00Z,26.0257,-81.7332,4.06,35.9,1111122 
NERRS,ioos:station:NOAA.NERRS:rkblhwq:1,2017-05-05T18:45:00Z,26.0257,-81.7332,3.63,35.9,1111122 
NERRS,ioos:station:NOAA.NERRS:rkblhwq:1,2017-05-05T20:45:00Z,26.0257,-81.7332,2.88,35.9,1111122 
NERRS,ioos:station:NOAA.NERRS:rkblhwq:1,2017-05-05T21:45:00Z,26.0257,-81.7332,2.7,36.1,1111122 
NERRS,ioos:station:NOAA.NERRS:rkblhwq:1,2017-05-05T22:45:00Z,26.0257,-81.7332,2.88,36.0,1111122 
NERRS,ioos:station:NOAA.NERRS:rkblhwq:1,2017-05-05T23:45:00Z,26.0257,-81.7332,3.21,35.8,1111122 
NERRS,ioos:station:NOAA.NERRS:rkblhwq:1,2017-05-06T00:45:00Z,26.0257,-81.7332,3.53,35.7,1111122 
NERRS,ioos:station:NOAA.NERRS:rkblhwq:1,2017-05-06T01:45:00Z,26.0257,-81.7332,3.92,35.9,1111122 
NERRS,ioos:station:NOAA.NERRS:rkblhwq:1,2017-05-06T03:45:00Z,26.0257,-81.7332,4.45,35.8,1111122 
NERRS,ioos:station:NOAA.NERRS:rkblhwq:1,2017-05-06T04:45:00Z,26.0257,-81.7332,4.45,35.9,1111122 
NERRS,ioos:station:NOAA.NERRS:rkblhwq:1,2017-05-06T05:45:00Z,26.0257,-81.7332,4.26,36.0,1111122 
NERRS,ioos:station:NOAA.NERRS:rkblhwq:1,2017-05-06T06:45:00Z,26.0257,-81.7332,3.92,36.0,1111122 
NERRS,ioos:station:NOAA.NERRS:rkblhwq:1,2017-05-06T07:45:00Z,26.0257,-81.7332,3.48,36.0,1111122 
NERRS,ioos:station:NOAA.NERRS:rkblhwq:1,2017-05-06T08:45:00Z,26.0257,-81.7332,3.07,36.1,1111122 
NERRS,ioos:station:NOAA.NERRS:rkblhwq:1,2017-05-06T10:45:00Z,26.0257,-81.7332,2.54,36.1,1111122 
NERRS,ioos:station:NOAA.NERRS:rkblhwq:1,2017-05-06T12:45:00Z,26.0257,-81.7332,3.03,36.1,1111122 
NERRS,ioos:station:NOAA.NERRS:rkblhwq:1,2017-05-06T13:45:00Z,26.0257,-81.7332,3.5,36.0,1111122 
NERRS,ioos:station:NOAA.NERRS:rkblhwq:1,2017-05-06T14:45:00Z,26.0257,-81.7332,3.93,35.9,1111122 
NERRS,ioos:station:NOAA.NERRS:rkblhwq:1,2017-05-06T15:45:00Z,26.0257,-81.7332,4.2,36.1,1111122 
NERRS,ioos:station:NOAA.NERRS:rkblhwq:1,2017-05-06T16:45:00Z,26.0257,-81.7332,4.02,36.0,1111122 
NERRS,ioos:station:NOAA.NERRS:rkblhwq:1,2017-05-06T17:45:00Z,26.0257,-81.7332,3.71,36.0,1111122 
NERRS,ioos:station:NOAA.NERRS:rkblhwq:1,2017-05-06T19:45:00Z,26.0257,-81.7332,2.97,36.2,1111122 
NERRS,ioos:station:NOAA.NERRS:rkblhwq:1,2017-05-06T20:45:00Z,26.0257,-81.7332,2.66,36.1,1111122 
NERRS,ioos:station:NOAA.NERRS:rkblhwq:1,2017-05-06T21:45:00Z,26.0257,-81.7332,2.43,36.1,1111122 
NERRS,ioos:station:NOAA.NERRS:rkblhwq:1,2017-05-06T22:45:00Z,26.0257,-81.7332,2.38,36.3,1111122 
NERRS,ioos:station:NOAA.NERRS:rkblhwq:1,2017-05-06T23:45:00Z,26.0257,-81.7332,2.62,36.1,1111122 
NERRS,ioos:station:NOAA.NERRS:rkblhwq:1,2017-05-07T01:45:00Z,26.0257,-81.7332,3.43,36.0,1111122 
NERRS,ioos:station:NOAA.NERRS:rkblhwq:1,2017-05-07T02:45:00Z,26.0257,-81.7332,3.87,36.0,1111122 
NERRS,ioos:station:NOAA.NERRS:rkblhwq:1,2017-05-07T03:45:00Z,26.0257,-81.7332,4.2,36.0,1111122 
NERRS,ioos:station:NOAA.NERRS:rkblhwq:1,2017-05-07T05:45:00Z,26.0257,-81.7332,4.12,36.1,1111122 
NERRS,ioos:station:NOAA.NERRS:rkblhwq:1,2017-05-07T06:45:00Z,26.0257,-81.7332,3.78,36.0,1111122 
NERRS,ioos:station:NOAA.NERRS:rkblhwq:1,2017-05-07T07:45:00Z,26.0257,-81.7332,3.4,36.2,1111122 
NERRS,ioos:station:NOAA.NERRS:rkblhwq:1,2017-05-07T09:45:00Z,26.0257,-81.7332,2.75,36.2,1111122 
NERRS,ioos:station:NOAA.NERRS:rkblhwq:1,2017-05-07T11:45:00Z,26.0257,-81.7332,2.82,36.2,1111122 
NERRS,ioos:station:NOAA.NERRS:rkblhwq:1,2017-05-07T12:45:00Z,26.0257,-81.7332,3.2,36.2,1111122 
NERRS,ioos:station:NOAA.NERRS:rkblhwq:1,2017-05-07T13:45:00Z,26.0257,-81.7332,3.66,36.1,1111122 
NERRS,ioos:station:NOAA.NERRS:rkblhwq:1,2017-05-07T14:45:00Z,26.0257,-81.7332,4.1,36.1,1111122 
NERRS,ioos:station:NOAA.NERRS:rkblhwq:1,2017-05-07T16:45:00Z,26.0257,-81.7332,4.47,36.1,1111122 
NERRS,ioos:station:NOAA.NERRS:rkblhwq:1,2017-05-07T17:45:00Z,26.0257,-81.7332,4.17,36.1,1111122 
NERRS,ioos:station:NOAA.NERRS:rkblhwq:1,2017-05-07T18:45:00Z,26.0257,-81.7332,3.72,36.2,1111122 
NERRS,ioos:station:NOAA.NERRS:rkblhwq:1,2017-05-07T20:45:00Z,26.0257,-81.7332,2.81,36.3,1111122 
NERRS,ioos:station:NOAA.NERRS:rkblhwq:1,2017-05-07T22:45:00Z,26.0257,-81.7332,2.12,36.2,1111122 
NERRS,ioos:station:NOAA.NERRS:rkblhwq:1,2017-05-07T23:45:00Z,26.0257,-81.7332,2.06,36.4,1111122 
NERRS,ioos:station:NOAA.NERRS:rkblhwq:1,2017-05-08T01:45:00Z,26.0257,-81.7332,2.73,36.2,1111122 
NERRS,ioos:station:NOAA.NERRS:rkblhwq:1,2017-05-08T03:45:00Z,26.0257,-81.7332,3.63,36.1,1111122 
NERRS,ioos:station:NOAA.NERRS:rkblhwq:1,2017-05-08T04:45:00Z,26.0257,-81.7332,3.99,36.1,1111122 
NERRS,ioos:station:NOAA.NERRS:rkblhwq:1,2017-05-08T05:45:00Z,26.0257,-81.7332,4.1,36.2,1111122 
NERRS,ioos:station:NOAA.NERRS:rkblhwq:1,2017-05-08T07:45:00Z,26.0257,-81.7332,3.42,36.2,1111122 
NERRS,ioos:station:NOAA.NERRS:rkblhwq:1,2017-05-08T08:45:00Z,26.0257,-81.7332,3.07,36.2,1111122 
NERRS,ioos:station:NOAA.NERRS:rkblhwq:1,2017-05-08T09:45:00Z,26.0257,-81.7332,2.73,36.2,1111122 
NERRS,ioos:station:NOAA.NERRS:rkblhwq:1,2017-05-08T10:45:00Z,26.0257,-81.7332,2.47,36.3,1111122 
NERRS,ioos:station:NOAA.NERRS:rkblhwq:1,2017-05-08T11:45:00Z,26.0257,-81.7332,2.43,36.2,1111122 
NERRS,ioos:station:NOAA.NERRS:rkblhwq:1,2017-05-08T13:45:00Z,26.0257,-81.7332,3.17,36.2,1111122 
NERRS,ioos:station:NOAA.NERRS:rkblhwq:1,2017-05-08T14:45:00Z,26.0257,-81.7332,3.66,36.1,1111122 
NERRS,ioos:station:NOAA.NERRS:rkblhwq:1,2017-05-08T15:45:00Z,26.0257,-81.7332,4.13,36.2,1111122 
NERRS,ioos:station:NOAA.NERRS:rkblhwq:1,2017-05-08T16:45:00Z,26.0257,-81.7332,4.43,36.1,1111122 
NERRS,ioos:station:NOAA.NERRS:rkblhwq:1,2017-05-08T17:45:00Z,26.0257,-81.7332,4.44,36.2,1111122 
NERRS,ioos:station:NOAA.NERRS:rkblhwq:1,2017-05-08T18:45:00Z,26.0257,-81.7332,4.08,36.2,1111122 
NERRS,ioos:station:NOAA.NERRS:rkblhwq:1,2017-05-08T19:45:00Z,26.0257,-81.7332,3.63,36.2,1111122 
NERRS,ioos:station:NOAA.NERRS:rkblhwq:1,2017-05-08T20:45:00Z,26.0257,-81.7332,3.18,36.3,1111122 
NERRS,ioos:station:NOAA.NERRS:rkblhwq:1,2017-05-08T21:45:00Z,26.0257,-81.7332,2.74,36.3,1111122 
NERRS,ioos:station:NOAA.NERRS:rkblhwq:1,2017-05-08T22:45:00Z,26.0257,-81.7332,2.36,36.3,1111122 
NERRS,ioos:station:NOAA.NERRS:rkblhwq:1,2017-05-09T00:45:00Z,26.0257,-81.7332,2.13,36.4,1111122 
NERRS,ioos:station:NOAA.NERRS:rkblhwq:1,2017-05-09T01:45:00Z,26.0257,-81.7332,2.49,36.4,1111122 
NERRS,ioos:station:NOAA.NERRS:rkblhwq:1,2017-05-09T02:45:00Z,26.0257,-81.7332,2.95,36.2,1111122 
NERRS,ioos:station:NOAA.NERRS:rkblhwq:1,2017-05-09T03:45:00Z,26.0257,-81.7332,3.47,36.2,1111122 
NERRS,ioos:station:NOAA.NERRS:rkblhwq:1,2017-05-09T04:45:00Z,26.0257,-81.7332,3.95,36.3,1111122 
NERRS,ioos:station:NOAA.NERRS:rkblhwq:1,2017-05-09T05:45:00Z,26.0257,-81.7332,4.28,36.2,1111122 
NERRS,ioos:station:NOAA.NERRS:rkblhwq:1,2017-05-09T06:45:00Z,26.0257,-81.7332,4.2,36.3,1111122 
NERRS,ioos:station:NOAA.NERRS:rkblhwq:1,2017-05-09T07:45:00Z,26.0257,-81.7332,3.83,36.2,1111122 
NERRS,ioos:station:NOAA.NERRS:rkblhwq:1,2017-05-09T08:45:00Z,26.0257,-81.7332,3.44,36.3,1111122 
NERRS,ioos:station:NOAA.NERRS:rkblhwq:1,2017-05-09T09:45:00Z,26.0257,-81.7332,3.07,36.3,1111122 
NERRS,ioos:station:NOAA.NERRS:rkblhwq:1,2017-05-09T10:45:00Z,26.0257,-81.7332,2.75,36.4,1111122 
NERRS,ioos:station:NOAA.NERRS:rkblhwq:1,2017-05-09T12:45:00Z,26.0257,-81.7332,2.78,36.3,1111122 
NERRS,ioos:station:NOAA.NERRS:rkblhwq:1,2017-05-09T13:45:00Z,26.0257,-81.7332,3.2,36.3,1111122 
NERRS,ioos:station:NOAA.NERRS:rkblhwq:1,2017-05-09T14:45:00Z,26.0257,-81.7332,3.68,36.2,1111122 
NERRS,ioos:station:NOAA.NERRS:rkblhwq:1,2017-05-09T15:45:00Z,26.0257,-81.7332,4.15,36.2,1111122 
NERRS,ioos:station:NOAA.NERRS:rkblhwq:1,2017-05-09T16:45:00Z,26.0257,-81.7332,4.5,36.2,1111122 
NERRS,ioos:station:NOAA.NERRS:rkblhwq:1,2017-05-09T17:45:00Z,26.0257,-81.7332,4.65,36.3,1111122 
NERRS,ioos:station:NOAA.NERRS:rkblhwq:1,2017-05-09T18:45:00Z,26.0257,-81.7332,4.41,36.2,1111122 
NERRS,ioos:station:NOAA.NERRS:rkblhwq:1,2017-05-09T19:45:00Z,26.0257,-81.7332,3.98,36.2,1111122 
NERRS,ioos:station:NOAA.NERRS:rkblhwq:1,2017-05-09T20:45:00Z,26.0257,-81.7332,3.5,36.3,1111122 
NERRS,ioos:station:NOAA.NERRS:rkblhwq:1,2017-05-09T21:45:00Z,26.0257,-81.7332,3.03,36.4,1111122 
NERRS,ioos:station:NOAA.NERRS:rkblhwq:1,2017-05-09T22:45:00Z,26.0257,-81.7332,2.57,36.4,1111122 
NERRS,ioos:station:NOAA.NERRS:rkblhwq:1,2017-05-09T23:45:00Z,26.0257,-81.7332,2.18,36.5,1111122 
NERRS,ioos:station:NOAA.NERRS:rkblhwq:1,2017-05-10T00:45:00Z,26.0257,-81.7332,1.94,36.5,1111122 
NERRS,ioos:station:NOAA.NERRS:rkblhwq:1,2017-05-10T01:45:00Z,26.0257,-81.7332,2.13,36.5,1111122 
NERRS,ioos:station:NOAA.NERRS:rkblhwq:1,2017-05-10T02:45:00Z,26.0257,-81.7332,2.54,36.5,1111122 
NERRS,ioos:station:NOAA.NERRS:rkblhwq:1,2017-05-10T03:45:00Z,26.0257,-81.7332,3.03,36.3,1111122 
NERRS,ioos:station:NOAA.NERRS:rkblhwq:1,2017-05-10T04:45:00Z,26.0257,-81.7332,3.56,36.3,1111122 
NERRS,ioos:station:NOAA.NERRS:rkblhwq:1,2017-05-10T05:45:00Z,26.0257,-81.7332,4.0,36.3,1111122 
NERRS,ioos:station:NOAA.NERRS:rkblhwq:1,2017-05-10T06:45:00Z,26.0257,-81.7332,4.22,36.3,1111122 
NERRS,ioos:station:NOAA.NERRS:rkblhwq:1,2017-05-10T07:45:00Z,26.0257,-81.7332,3.99,36.4,1111122 
NERRS,ioos:station:NOAA.NERRS:rkblhwq:1,2017-05-10T08:45:00Z,26.0257,-81.7332,3.62,36.3,1111122 
NERRS,ioos:station:NOAA.NERRS:rkblhwq:1,2017-05-10T09:45:00Z,26.0257,-81.7332,3.28,36.4,1111122 
NERRS,ioos:station:NOAA.NERRS:rkblhwq:1,2017-05-10T10:45:00Z,26.0257,-81.7332,2.97,36.4,1111122 
NERRS,ioos:station:NOAA.NERRS:rkblhwq:1,2017-05-10T11:45:00Z,26.0257,-81.7332,2.72,36.4,1111122 
NERRS,ioos:station:NOAA.NERRS:rkblhwq:1,2017-05-10T12:45:00Z,26.0257,-81.7332,2.68,36.4,1111122 
NERRS,ioos:station:NOAA.NERRS:rkblhwq:1,2017-05-10T13:45:00Z,26.0257,-81.7332,2.99,36.4,1111122 
NERRS,ioos:station:NOAA.NERRS:rkblhwq:1,2017-05-10T14:45:00Z,26.0257,-81.7332,3.44,36.3,1111122 
NERRS,ioos:station:NOAA.NERRS:rkblhwq:1,2017-05-10T15:45:00Z,26.0257,-81.7332,3.93,36.3,1111122 
NERRS,ioos:station:NOAA.NERRS:rkblhwq:1,2017-05-10T16:45:00Z,26.0257,-81.7332,4.38,36.2,1111122 
NERRS,ioos:station:NOAA.NERRS:rkblhwq:1,2017-05-10T18:45:00Z,26.0257,-81.7332,4.67,36.3,1111122 
NERRS,ioos:station:NOAA.NERRS:rkblhwq:1,2017-05-10T19:45:00Z,26.0257,-81.7332,4.29,36.3,1111122 
NERRS,ioos:station:NOAA.NERRS:rkblhwq:1,2017-05-10T20:45:00Z,26.0257,-81.7332,3.82,36.3,1111122 
NERRS,ioos:station:NOAA.NERRS:rkblhwq:1,2017-05-10T21:45:00Z,26.0257,-81.7332,3.33,36.4,1111122 
NERRS,ioos:station:NOAA.NERRS:rkblhwq:1,2017-05-10T22:45:00Z,26.0257,-81.7332,2.86,36.5,1111122 
NERRS,ioos:station:NOAA.NERRS:rkblhwq:1,2017-05-10T23:45:00Z,26.0257,-81.7332,2.44,36.5,1111122 
NERRS,ioos:station:NOAA.NERRS:rkblhwq:1,2017-05-11T00:45:00Z,26.0257,-81.7332,2.12,36.5,1111122 
NERRS,ioos:station:NOAA.NERRS:rkblhwq:1,2017-05-11T01:45:00Z,26.0257,-81.7332,2.08,36.5,1111122 
NERRS,ioos:station:NOAA.NERRS:rkblhwq:1,2017-05-11T02:45:00Z,26.0257,-81.7332,2.45,36.5,1111122 
NERRS,ioos:station:NOAA.NERRS:rkblhwq:1,2017-05-11T03:45:00Z,26.0257,-81.7332,2.89,36.4,1111122 
NERRS,ioos:station:NOAA.NERRS:rkblhwq:1,2017-05-11T04:45:00Z,26.0257,-81.7332,3.39,36.3,1111122 
NERRS,ioos:station:NOAA.NERRS:rkblhwq:1,2017-05-11T05:45:00Z,26.0257,-81.7332,3.9,36.3,1111122 
NERRS,ioos:station:NOAA.NERRS:rkblhwq:1,2017-05-11T06:45:00Z,26.0257,-81.7332,4.27,36.3,1111122 
NERRS,ioos:station:NOAA.NERRS:rkblhwq:1,2017-05-11T07:45:00Z,26.0257,-81.7332,4.33,36.4,1111122 
NERRS,ioos:station:NOAA.NERRS:rkblhwq:1,2017-05-11T08:45:00Z,26.0257,-81.7332,4.01,36.3,1111122 
NERRS,ioos:station:NOAA.NERRS:rkblhwq:1,2017-05-11T09:45:00Z,26.0257,-81.7332,3.64,36.3,1111122 
NERRS,ioos:station:NOAA.NERRS:rkblhwq:1,2017-05-11T10:45:00Z,26.0257,-81.7332,3.3,36.4,1111122 
NERRS,ioos:station:NOAA.NERRS:rkblhwq:1,2017-05-11T11:45:00Z,26.0257,-81.7332,3.0,36.4,1111122 
NERRS,ioos:station:NOAA.NERRS:rkblhwq:1,2017-05-11T12:45:00Z,26.0257,-81.7332,2.8,36.4,1111122 
NERRS,ioos:station:NOAA.NERRS:rkblhwq:1,2017-05-11T13:45:00Z,26.0257,-81.7332,2.91,36.4,1111122 
NERRS,ioos:station:NOAA.NERRS:rkblhwq:1,2017-05-11T14:45:00Z,26.0257,-81.7332,3.27,36.4,1111122 
NERRS,ioos:station:NOAA.NERRS:rkblhwq:1,2017-05-11T15:45:00Z,26.0257,-81.7332,3.74,36.3,1111122 
NERRS,ioos:station:NOAA.NERRS:rkblhwq:1,2017-05-11T16:45:00Z,26.0257,-81.7332,4.21,36.3,1111122 
NERRS,ioos:station:NOAA.NERRS:rkblhwq:1,2017-05-11T17:45:00Z,26.0257,-81.7332,4.54,36.3,1111122 
NERRS,ioos:station:NOAA.NERRS:rkblhwq:1,2017-05-11T18:45:00Z,26.0257,-81.7332,4.62,36.4,1111122 
NERRS,ioos:station:NOAA.NERRS:rkblhwq:1,2017-05-12T00:45:00Z,26.0257,-81.7332,2.12,36.6,1111122 
NERRS,ioos:station:NOAA.NERRS:rkblhwq:1,2017-05-12T01:45:00Z,26.0257,-81.7332,1.87,36.7,1111122 
NERRS,ioos:station:NOAA.NERRS:rkblhwq:1,2017-05-12T02:45:00Z,26.0257,-81.7332,2.0,36.7,1111122 
NERRS,ioos:station:NOAA.NERRS:rkblhwq:1,2017-05-12T03:45:00Z,26.0257,-81.7332,2.34,36.7,1111122 
NERRS,ioos:station:NOAA.NERRS:rkblhwq:1,2017-05-12T04:45:00Z,26.0257,-81.7332,2.74,36.6,1111122 
NERRS,ioos:station:NOAA.NERRS:rkblhwq:1,2017-05-12T05:45:00Z,26.0257,-81.7332,3.25,36.5,1111122 
NERRS,ioos:station:NOAA.NERRS:rkblhwq:1,2017-05-12T06:45:00Z,26.0257,-81.7332,3.73,36.4,1111122 
NERRS,ioos:station:NOAA.NERRS:rkblhwq:1,2017-05-12T07:45:00Z,26.0257,-81.7332,4.04,36.4,1111122 
NERRS,ioos:station:NOAA.NERRS:rkblhwq:1,2017-05-12T08:45:00Z,26.0257,-81.7332,4.03,36.5,1111122 